AO-07 1 07530U 74089B 17257.78813840 -.00000017 00000-0 17174-3 0 9996 2 07530 101.6412 224.7407 0012135 146.6072 330.6011 12.53628777960081 UO-11 1 14781U 84021B 17257.70856573 .00000150 00000-0 24768-4 0 9996 2 14781 97.6886 300.0828 0007025 265.5400 94.5012 14.82929564803613 LO-19 1 20442U 90005G 17257.38706424 .00000006 00000-0 18307-4 0 9991 2 20442 098.5792 193.0117 0010678 242.3196 117.6905 14.32869716444339 HUBBLE 1 20580U 90037B 17257.12407589 .00000765 00000-0 36248-4 0 9997 2 20580 028.4693 139.8141 0002810 052.8630 075.3801 15.08848241303732 MET-2/21 1 22782U 93055A 17257.76632531 -.00000015 00000-0 -26579-4 0 9999 2 22782 82.5489 312.4999 0022524 176.4548 314.1423 13.83802246214086 AO-27 1 22825U 93061C 17257.47395905 .00000020 00000-0 25486-4 0 9993 2 22825 098.8224 224.1976 0009510 072.8304 287.3918 14.30005955249896 IO-26 1 22826U 93061D 17257.48449171 .00000022 00000-0 26103-4 0 9999 2 22826 098.8166 224.2798 0009974 063.9521 296.2686 14.30335427250096 FO-29 1 24278U 96046B 17257.63829551 -.00000006 00000-0 27244-4 0 9999 2 24278 98.5486 128.9379 0351319 105.5509 258.4699 13.53078359 40978 NOAA-15 1 25338U 98030A 17257.61834914 .00000045 00000-0 38048-4 0 9995 2 25338 098.7819 268.7057 0009679 311.3600 048.6747 14.25816023005491 GO-32 1 25397U 98043D 17257.38405736 -.00000003 00000-0 17698-4 0 9997 2 25397 098.6154 197.8647 0002417 094.3383 265.8072 14.23628444996267 ISS 1 25544U 98067A 17257.55825257 .00002700 00000-0 47912-4 0 9997 2 25544 051.6438 312.8021 0003632 271.9755 171.8802 15.54190898075656 NO-44 1 26931U 01043C 17257.53285870 .00000006 00000-0 34256-4 0 9999 2 26931 067.0504 220.6683 0006528 257.0917 102.9455 14.30473432833050 SO-50 1 27607U 02058C 17257.47849372 .00000112 00000-0 36768-4 0 9991 2 27607 064.5551 212.6969 0032801 051.7441 308.6605 14.75360785792159 CO-55 1 27844U 03031E 17257.57412029 .00000078 00000-0 55068-4 0 9997 2 27844 098.6906 265.2826 0010953 089.0951 271.1481 14.22059176736980 CO-57 1 27848U 03031J 17257.59817426 .00000058 00000-0 46342-4 0 9996 2 27848 098.6998 265.6025 0010838 097.7160 262.5249 14.21671044736877 RS-22 1 27939U 03042A 17257.84188882 .00000149 00000-0 35362-4 0 9995 2 27939 97.9522 39.7590 0011803 305.3018 200.8919 14.66598841746459 NOAA-18 1 28654U 05018A 17257.60048775 -.00000009 00000-0 20609-4 0 9999 2 28654 099.1784 281.9808 0014425 177.1706 182.9548 14.12348820634784 CO-58 1 28895U 05043F 17257.40193894 .00000237 00000-0 54531-4 0 9998 2 28895 097.8753 055.6356 0015991 217.6349 142.3736 14.63435655633538 Falconsat-3 1 30776U 07006E 17257.34995254 .00003950 00000-0 12325-3 0 9992 2 30776 035.4350 220.7757 0001928 030.4073 329.6764 15.32787699581943 CO-65 1 32785U 08021C 17257.75205945 .00000344 00000-0 43197-4 0 9994 2 32785 97.5630 277.9180 0011958 227.0662 132.9553 14.87948486508213 AAUSAT2 1 32788U 08021F 17257.65145637 .00000965 00000-0 95613-4 0 9996 2 32788 97.5525 290.2369 0011824 183.7297 176.3838 14.93990140509030 DO-64 1 32789U 08021G 17257.38331884 .00002634 00000-0 18873-3 0 9995 2 32789 097.5503 313.7090 0013479 153.5555 206.6363 15.05168527510187 CO-66 1 32791U 08021J 17257.74688487 .00000598 00000-0 66920-4 0 9996 2 32791 97.5587 282.5508 0012643 209.5634 150.4871 14.90307105508481 RS-30 1 32953U 08025A 17257.86284459 .00000011 00000-0 79943-5 0 9994 2 32953 82.5063 183.8958 0020206 88.3352 272.0042 12.43079204422567 PRISM 1 33493U 09002B 17257.67317069 .00000860 00000-0 82629-4 0 9999 2 33493 98.1554 143.8278 0015770 141.9280 218.3056 14.95805970469152 NOAA-19 1 33591U 09005A 17257.61173758 .00000113 00000-0 86521-4 0 9996 2 33591 099.1026 225.7504 0014506 024.7800 335.4065 14.12210862443017 TISAT-1 1 36799U 10035E 17257.56858579 .00000796 00000-0 87526-4 0 9992 2 36799 098.0722 022.1632 0013140 038.8555 321.3604 14.90494547388895 JUGNU 1 37839U 11058B 17257.37389065 .00000342 00000-0 40815-4 0 9999 2 37839 19.9607 269.6992 0019168 86.5702 41.9679 14.12592842306328 SRMSAT 1 37841U 11058D 17257.49450273 .00000329 00000-0 35956-4 0 9990 2 37841 019.9723 312.4895 0011858 343.1848 150.8673 14.10583134305819 AO-71 1 37854U 11061E 17257.25024069 .00001828 00000-0 10454-3 0 9992 2 37854 101.6923 176.1557 0166646 171.2302 189.1885 15.04372263319879 HRBE 1 37855U 11061F 17257.38796058 .00002251 00000-0 12444-3 0 9993 2 37855 101.7044 174.1112 0179742 177.9569 182.2416 15.03338233319725 ALMASAT-1 1 38078U 12006B 17257.50801570 .00026216 37613-5 28372-3 0 9990 2 38078 069.4356 251.4058 0294306 159.7486 201.5666 15.25900456298394 HORYU-2 1 38340U 12025D 17257.61038537 .00000336 00000-0 57661-4 0 9994 2 38340 98.3785 264.6920 0011941 14.2923 345.8621 14.75393651286476 RS-40 1 38735U 12041C 17257.82579456 .00000011 00000-0 49664-5 0 9998 2 38735 82.4713 268.2898 0016585 189.1005 170.9776 12.42575090232824 BEESAT-3 1 39134U 13015E 17257.49003265 .00002288 00000-0 11935-3 0 9993 2 39134 064.8647 298.1426 0039411 249.6054 110.0837 15.18118963242659 BEESAT-2 1 39136U 13015G 17257.54428843 .00001844 00000-0 10641-3 0 9994 2 39136 64.8698 309.9258 0034293 270.0108 89.7087 15.15336533242811 ZACUBE-1 1 39417U 13066B 17257.69783181 .00000323 00000-0 47354-4 0 9990 2 39417 97.6218 295.5623 0058638 338.5445 21.3311 14.80765691206021 TRITON-1 1 39427U 13066M 17257.58148807 .00000343 00000-0 62628-4 0 9992 2 39427 097.6376 266.9469 0115668 062.7814 298.5123 14.67508006203969 GOMX-1 1 39430U 13066Q 17257.54049735 .00000289 00000-0 60919-4 0 9992 2 39430 97.6705 249.7904 0153135 120.5617 241.0797 14.58915193202965 LO-74 1 39440U 13066AA 17257.62672068 .00000363 00000-0 57755-4 0 9990 2 39440 97.6235 283.9788 0080939 11.3088 348.9917 14.75506369205283 AO-73 1 39444U 13066AE 17257.70046417 .00000396 00000-0 55703-4 0 9993 2 39444 97.6233 296.7340 0057714 334.9413 24.9001 14.81510447204869 SPROUT 1 39770U 14029E 17257.83740619 .00001673 00000-0 19574-3 0 9998 2 39770 97.8752 356.3479 0010179 42.6330 317.5626 14.86388829179452 DUCHIFAT-1 1 40021U 14033M 17257.55224124 .00000699 00000-0 78308-4 0 9999 2 40021 097.9132 170.8282 0013563 013.5383 346.6196 14.89988152175901 NANOSATCBR1 1 40024U 14033Q 17257.72945456 .00000584 00000-0 67542-4 0 9990 2 40024 97.9086 169.7497 0012815 14.5261 345.6322 14.89300131175873 EO-79 1 40025U 14033R 17257.62271014 .00000508 00000-0 60671-4 0 9994 2 40025 097.9065 168.5499 0013093 017.8379 342.3295 14.88489891175283 DTUSAT-2 1 40030U 14033W 17257.71786425 .00000459 00000-0 55898-4 0 9997 2 40030 97.9026 167.6650 0012391 12.6298 347.5226 14.88109482175767 EO-80 1 40032U 14033Y 17257.29329062 .00000487 00000-0 59038-4 0 9993 2 40032 97.9034 167.2471 0012396 14.3743 345.7824 14.88044444175696 ANTELSAT 1 40034U 14033AA 17257.56792058 .00000358 00000-0 61066-4 0 9995 2 40034 097.8458 138.6703 0059391 006.8362 353.3643 14.73750900173558 VELOX-1 1 40057U 14034E 17257.50980451 .00000889 00000-0 13298-3 0 9993 2 40057 098.1930 359.0930 0012259 127.2345 232.9979 14.77197508172943 DAURIA DX 1 1 40071U 14037C 17257.71753042 .00000406 00000-0 59705-4 0 9998 2 40071 98.3456 12.3824 0009645 120.5455 239.6710 14.81053271172229 UKUBE-1 1 40074U 14037F 17257.66085686 .00000925 00000-0 11936-3 0 9996 2 40074 98.3559 16.6450 0005801 115.2925 244.8889 14.83575601172448 HODOYOSHI-1 1 40299U 14070B 17257.78701578 .00001522 00000-0 68698-4 0 9992 2 40299 97.3995 339.1572 0014306 132.0893 343.3748 15.22421861158578 CHUBUSAT-1 1 40300U 14070C 17257.77495148 .00001624 00000-0 75843-4 0 9990 2 40300 97.3906 336.0158 0021559 143.9423 8.9022 15.21037190158405 QSAT-EOS 1 40301U 14070D 17257.79974549 .00003798 00000-0 16003-3 0 9996 2 40301 97.3842 336.3452 0028354 139.4733 334.8314 15.23578658158472 FIREBIRD FU3 1 40377U 15003B 17257.53783235 .00003299 00000-0 14089-3 0 9996 2 40377 099.1203 099.3404 0135979 066.4094 295.1346 15.15836747144533 FIREBIRD FU4 1 40378U 15003C 17257.79292901 .00003397 00000-0 14476-3 0 9999 2 40378 99.1205 99.6899 0136166 65.4784 296.0570 15.15854646144583 GRIFEX 1 40379U 15003D 17257.79224364 .00002624 00000-0 11955-3 0 9999 2 40379 99.1234 97.0894 0142299 74.1239 287.5618 15.13304542144434 NO-84 1 40654U 15025D 17257.37689120 .00010631 00000-0 18975-3 0 00816 2 40654 054.9926 197.6253 0179392 129.8404 231.8634 15.34934244013402 NO-83 1 40655U 15025E 17257.33644761 .00021963 00000-0 30550-3 0 00919 2 40655 054.9794 167.1856 0143709 146.8728 214.1475 15.45752338013454 DEORBITSAIL 1 40719U 15032E 17257.73649592 .00000563 00000-0 88718-4 0 9999 2 40719 97.9690 150.3266 0015420 211.7776 148.2504 14.76146607117532 NUDT-PHONESAT 1 40900U 15049B 17257.85899271 .00004106 00000-0 19425-3 0 9998 2 40900 97.4444 264.5344 0012017 272.8725 87.1135 15.19869888110076 XW-2A 1 40903U 15049E 17257.78800655 .00003353 00000-0 88350-4 0 9998 2 40903 97.4167 284.5890 0013178 307.5264 52.4783 15.39174738111421 XW-2C 1 40906U 15049H 17257.82632280 .00001210 00000-0 68779-4 0 9996 2 40906 97.4571 261.5405 0013486 263.7457 96.2239 15.14699126109806 XW-2D 1 40907U 15049J 17257.73729471 .00001306 00000-0 73757-4 0 9994 2 40907 97.4542 261.1946 0012858 261.8315 98.1459 15.14813482109791 LILACSAT-2 1 40908U 15049K 17257.89208492 .00000803 00000-0 48776-4 0 9991 2 40908 97.4646 261.0345 0014475 260.2107 99.7489 15.13217756109733 XW-2F 1 40910U 15049M 17257.55377599 .00001910 00000-0 10339-3 0 9995 2 40910 097.4559 261.8429 0013620 259.5544 100.4154 15.15769695109811 XW-2B 1 40911U 15049N 17257.74570313 .00001269 00000-0 71852-4 0 9991 2 40911 97.4583 261.6234 0012761 262.3321 97.6462 15.14771415109698 DCBB 1 40912U 15049P 17257.49930119 .00002820 00000-0 14213-3 0 9999 2 40912 097.4524 263.8830 0013833 250.6214 260.9306 15.17902049109832 TW-1C 1 40926U 15051B 17257.80562990 .00010417 00000-0 22924-3 0 9999 2 40926 97.2217 296.7040 0010694 193.8353 254.6926 15.44094818110742 TW-1A 1 40928U 15051D 17257.52124130 .00005073 00000-0 14326-3 0 9999 2 40928 097.2203 291.7282 0010695 231.6130 271.7513 15.36761228110410 IO-86 1 40931U 15052B 17257.47356190 .00000819 00000-0 25087-4 0 9991 2 40931 006.0006 316.1161 0013218 064.7053 295.4490 14.76542629106185 GomX-3 1 40949U 98067HA 16292.18357804 .08527750 12374-4 77882-3 0 9992 2 40949 51.6055 106.7696 0006699 286.1344 73.8944 16.38002265 59645 LQSat 1 40958U 15057A 17257.71291910 .00000157 00000-0 32087-4 0 9993 2 40958 97.9716 331.4404 0019137 136.0907 224.1822 14.72985544104299 AO-85 1 40967U 15058D 17257.43535610 .00000464 00000-0 71902-4 0 00880 2 40967 064.7763 308.1470 0177066 045.1739 316.3583 14.75492253012969 ATHENOXAT-1 1 41168U 15077C 17257.33607286 .00004563 00000-0 22003-3 0 9995 2 41168 014.9863 238.0660 0012282 170.9510 222.2370 15.11873258096550 ChubuSat-2 1 41338U 16012B 17257.40282746 .00000565 00000-0 37691-4 0 9990 2 41338 031.0029 265.6265 0013953 222.7313 137.2238 14.99800648086390 ChubuSat-3 1 41339U 16012C 17257.38548359 .00000777 00000-0 54163-4 0 9991 2 41339 031.0106 264.7405 0013455 230.6764 129.2670 15.00003086086371 Horyu-4 1 41340U 16012D 17257.38601125 .00000867 00000-0 59985-4 0 9991 2 41340 031.0048 261.6138 0014221 238.4286 121.4961 15.00690914086429 OUFTI-1 1 41458U 16025C 17257.76845396 .00002101 00000-0 11558-3 0 9993 2 41458 98.1780 300.4608 0172340 350.9128 8.8981 15.03573829 76036 e-st@r-II 1 41459U 16025D 17257.79945837 .00002781 00000-0 15181-3 0 9998 2 41459 98.1760 300.4238 0173100 350.9168 8.8916 15.03382093 76032 AAUSAT4 1 41460U 16025E 17257.87394614 .00003513 00000-0 18977-3 0 9990 2 41460 98.1689 300.6628 0165832 348.5344 11.2107 15.04406648 76079 NODES 1 1 41477U 98067HX 17257.82983534 .01027337 69546-3 78381-3 0 9993 2 41477 51.6140 251.0443 0003158 69.3322 290.8032 16.14562911 76343 NODES 2 1 41478U 98067HY 17257.69320736 .00578542 18096-3 64728-3 0 9990 2 41478 51.6218 253.2332 0005111 64.3174 295.8343 16.08780297 76300 LO-87 1 41557U 16033B 17257.84519797 .00002914 00000-0 11123-3 0 9994 2 41557 97.4583 337.3538 0015431 55.3695 304.8996 15.27368870 72116 NuSat2 1 41558U 16033C 17257.75670108 .00002468 00000-0 95174-4 0 9992 2 41558 97.4611 337.3295 0014861 54.7099 305.5527 15.27186596 72094 Lapan A3 1 41603U 16040E 17257.81279256 .00000444 00000-0 24150-4 0 9995 2 41603 97.4514 318.6847 0015143 117.9743 352.7320 15.19407777 68261 Swayam 1 41607U 16040J 17257.40908022 .00002633 00000-0 12108-3 0 9995 2 41607 097.4523 318.7842 0015735 121.8415 238.4354 15.21137789068160 Pratham 1 41783U 16059A 17257.76554983 .00000091 00000-0 27196-4 0 9992 2 41783 98.1584 318.1723 0032529 238.7147 121.0868 14.62858414 51698 AlSat 1N 1 41789U 16059G 17257.74824757 .00000252 00000-0 56999-4 0 9997 2 41789 98.1586 318.8302 0027161 232.0211 127.8537 14.64075842 51719 ScatSat 1 41790U 16059H 17257.58980780 .00000019 00000-0 16018-4 0 9999 2 41790 098.3017 304.7615 0017470 213.4997 146.5094 14.50854341051225 TY-1 1 41844U 16066D 17257.82131109 .00002400 00000-0 10700-3 0 9994 2 41844 97.4069 263.6368 0014150 286.3031 197.7583 15.22303682 46974 CAS-2T 1 41845U 16066E 17257.89100137 .00000317 00000-0 59081-4 0 9990 2 41845 98.7744 275.6541 0366195 342.2032 16.6619 14.37797391 44388 Pegasus-1 1 41846U 16066F 17257.57212970 .00000656 00000-0 11100-3 0 9990 2 41846 098.7786 275.0474 0368806 344.7274 014.3012 14.37111284044316 STARS-C 1 41895U 98067KR 17257.61460771 .00037612 00000-0 34774-3 0 9998 2 41895 051.6363 301.3387 0004395 331.8634 028.2124 15.67155333041987 Tancredo 1 1 41931U 98067KT 17257.19670296 .00124905 00000-0 59876-3 0 9999 2 41931 51.6310 294.7040 0004720 353.9734 6.1211 15.81827626 37602 TO-89 1 41932U 98067KU 17257.16925900 .00021803 00000-0 25089-3 0 9994 2 41932 051.6405 307.4155 0003762 253.4955 106.5626 15.61920630037434 AOBA-V3LOX3 1 41935U 98067KX 17257.32686466 .00016417 00000-0 18598-3 0 9998 2 41935 51.6398 306.2107 0003239 264.5303 95.5321 15.62547895 37563 OSNSAT 1 41939U 98067KZ 17257.40370201 .00038790 00000-0 31603-3 0 9998 2 41939 051.6358 299.9147 0003438 292.2467 067.8165 15.70235091036901 EO-88 1 42017U 17008BX 17257.51917251 .00002703 00000-0 11685-3 0 9999 2 42017 097.4868 318.7777 0004921 266.4024 093.6650 15.23332580032082 HAVELSAT 1 42700U 98067LH 17257.55664274 .00016089 00000-0 21367-3 0 9990 2 42700 051.6400 310.7268 0006259 310.3842 049.6604 15.58365533018867 SOMP2 1 42701U 98067LJ 17257.76036782 .00017024 00000-0 22827-3 0 9993 2 42701 51.6399 309.8415 0006113 310.9315 49.1147 15.58060783 18886 Columbia 1 42702U 98067LK 17257.26485717 .00033517 00000-0 38348-3 0 9995 2 42702 51.6388 311.0270 0006466 316.8676 43.1811 15.61800992 18751 PHOENIX 1 42706U 98067LP 17257.69142399 .00030419 00000-0 39898-3 0 9991 2 42706 51.6397 310.1325 0001391 321.4885 38.6008 15.58279343 18799 X-CubeSat 1 42707U 98067LQ 17257.62729198 .00016763 00000-0 22328-3 0 9999 2 42707 51.6390 310.4495 0001575 324.2948 35.7939 15.58265701 18771 qbee 1 42708U 98067LR 17257.69465458 .00016461 00000-0 21997-3 0 9999 2 42708 51.6390 310.1497 0001597 322.8470 37.2412 15.58193139 18744 ZA-AeroSat 1 42713U 98067LU 17257.59294917 .00012183 00000-0 16861-3 0 9995 2 42713 51.6399 310.9715 0001239 248.0254 112.0607 15.57541955 18438 LINK 1 42714U 98067LV 17257.69991198 .00023078 00000-0 30075-3 0 9990 2 42714 51.6391 310.1822 0001288 285.6535 74.4316 15.58613415 18569 UPSat 1 42716U 98067LX 17257.23587491 .00016250 00000-0 21378-3 0 9999 2 42716 051.6398 312.3369 0004790 316.6043 043.4572 15.58616449018513 SpaceCube 1 42717U 98067LY 17257.76876369 .00017700 00000-0 23722-3 0 9999 2 42717 51.6398 309.8946 0004682 317.2515 42.8113 15.58049578 17838 Hoopoe 1 42718U 98067LZ 17257.63052693 .00018113 00000-0 23980-3 0 9997 2 42718 51.6393 310.4739 0004721 317.1030 42.9593 15.58358483 17816 Challenger 1 42721U 98067MA 17257.75741326 .00026970 00000-0 34456-3 0 9992 2 42721 51.6387 309.8149 0007037 294.5853 65.4406 15.59023101 17533 NJUST-1 1 42722U 98067MB 17257.23091024 .00013137 00000-0 18300-3 0 9990 2 42722 51.6396 313.0503 0007023 287.9884 72.0343 15.57269875 17442 UNSW-EC0 1 42723U 98067MC 17257.72195109 .00019146 00000-0 25540-3 0 9994 2 42723 51.6398 310.3331 0006882 292.3938 67.6325 15.58100544 17501 DUTHsat 1 42724U 98067MD 17257.70319507 .00024363 00000-0 31438-3 0 9993 2 42724 51.6398 310.2061 0006308 299.4672 60.5691 15.58824341 17424 LO-90 1 42725U 98067ME 17257.61636457 .00016268 00000-0 22338-3 0 9994 2 42725 51.6398 311.1268 0006119 295.0898 64.9458 15.57460373 17403 nSIGHT1 1 42726U 98067MF 17257.58310818 .00009197 00000-0 13468-3 0 9998 2 42726 51.6406 311.6560 0006121 292.6298 67.4046 15.56350560 17400 QBITO 1 42728U 98067MH 17257.59943735 .00016345 00000-0 22120-3 0 9999 2 42728 51.6408 311.0178 0003748 311.2389 48.8280 15.57857500 17213 Aalto-2 1 42729U 98067MJ 17257.72756403 .00016999 00000-0 22976-3 0 9993 2 42729 51.6399 310.3698 0003734 311.8911 48.1763 15.57858595 17241 SUSat 1 42730U 98067MK 17257.60422508 .00015215 00000-0 20762-3 0 9999 2 42730 51.6399 311.0447 0003744 308.8760 51.1897 15.57698111 17217 i-INSPIRE II 1 42731U 98067ML 17257.65362644 .00020210 00000-0 26742-3 0 9994 2 42731 51.6385 310.6173 0005635 238.6796 121.3645 15.58285624 17273 PolyITAN-2-SAU 1 42732U 98067MM 17257.66038805 .00016872 00000-0 22731-3 0 9998 2 42732 51.6391 310.6612 0005931 236.1005 123.9423 15.57941087 17277 SNUSAT-1 1 42733U 98067MN 17257.60466796 .00015369 00000-0 20925-3 0 9990 2 42733 51.6393 311.0405 0005849 237.8852 122.1573 15.57741257 17264 ExAlta-1 1 42734U 98067MP 17257.65408968 .00018256 00000-0 24280-3 0 9999 2 42734 51.6387 310.6227 0007739 264.5753 95.4357 15.58211872 17226 Aoxiang-1 1 42735U 98067MQ 17257.54892779 .00014147 00000-0 19589-3 0 9996 2 42735 051.6395 311.4233 0007576 285.1669 074.8484 15.57353465018627 BeEagleSat 1 42736U 98067MR 17257.41775267 .00013568 00000-0 18711-3 0 9997 2 42736 51.6396 312.0474 0007454 284.4777 75.5388 15.57506104 17293 Atlantis 1 42737U 98067MS 17257.45862288 .00029598 00000-0 35432-3 0 9991 2 42737 051.6379 310.8139 0007187 294.0834 065.9407 15.60682563017207 CAS-4B 1 42759U 17034B 17257.81016259 .00001058 00000-0 79377-4 0 9997 2 42759 43.0182 154.7344 0007606 195.9209 273.8332 15.08997315 13841 CAS-4A 1 42761U 17034D 17257.86837130 .00001035 00000-0 77761-4 0 9994 2 42761 43.0185 154.3582 0007863 196.3812 254.3495 15.09071619 13842 UCLSat 1 42765U 17036A 17257.37439556 .00002102 00000-0 97993-4 0 9991 2 42765 097.4415 316.1566 0011126 329.5891 030.4698 15.20933966013369 NIUSat 1 42766U 17036B 17257.57505842 .00001722 00000-0 83808-4 0 9993 2 42766 097.4418 316.1981 0014971 311.4053 048.5895 15.19642435012662 LituanicaSAT 2 1 42768U 17036D 17257.56636704 .00003436 00000-0 16269-3 0 9996 2 42768 097.4418 316.2066 0014925 314.6000 045.4016 15.19925760012672 InflateSail 1 42770U 17036F 17245.93730135 .99999999 00000-0 73960-1 0 9995 2 42770 097.4262 306.2162 0014869 278.7167 080.9844 16.07641391010932 Aalto 1 1 42775U 17036L 17257.61391539 .00001575 00000-0 75972-4 0 9993 2 42775 097.4416 316.2976 0013160 312.9912 047.0219 15.20115606012621 URSA MAIOR 1 42776U 17036M 17257.61181869 .00001587 00000-0 76440-4 0 9991 2 42776 097.4418 316.3029 0013014 313.4000 046.6151 15.20157154012620 Max Valier Sat 1 42778U 17036P 17257.59083335 .00001832 00000-0 86737-4 0 9992 2 42778 097.4434 316.3476 0011650 320.1301 039.9078 15.20558857012616 Pegasus 1 42784U 17036V 17257.31587348 .00002004 00000-0 93978-4 0 9999 2 42784 097.4418 316.0843 0011587 329.4411 030.6148 15.20790967012574 NUDATSat 1 42787U 17036Y 17257.37447993 .00002799 00000-0 12924-3 0 9991 2 42787 97.4418 316.1584 0011196 329.5854 30.4731 15.20991802 12429 SUCHAI 1 1 42788U 17036Z 17257.37622958 .00002306 00000-0 10729-3 0 9993 2 42788 097.4417 316.1554 0011211 329.5763 030.4820 15.20916664012650 SKCUBE 1 42789U 17036AA 17257.37413661 .00002164 00000-0 10080-3 0 9995 2 42789 097.4416 316.1571 0011043 329.6708 030.3887 15.20944606012572 VZLUSAT 1 1 42790U 17036AB 17257.36967183 .00002444 00000-0 11306-3 0 9992 2 42790 097.4414 316.1605 0010768 330.2569 029.8053 15.21050328012574 VENTA 1 1 42791U 17036AC 17257.56582921 .00002236 00000-0 10373-3 0 9990 2 42791 097.4415 316.3592 0010647 330.0048 030.0576 15.21047635012592 Robusta 1B 1 42792U 17036AD 17257.69632192 .00002355 00000-0 10900-3 0 9999 2 42792 97.4413 316.4879 0010617 330.0174 30.0452 15.21075965 12632 D-SAT 1 42794U 17036AF 17257.61684071 .00001417 00000-0 66524-4 0 9998 2 42794 097.4410 316.4379 0008870 329.7202 030.3520 15.21256384012614 BIRD-J 1 42820U 98067MU 17257.60485738 .00014228 00000-0 20081-3 0 9990 2 42820 51.6399 311.7953 0001812 224.8653 135.2192 15.56852108 10771 BIRD-G 1 42821U 98067MV 17257.60724360 .00014142 00000-0 20027-3 0 9993 2 42821 51.6398 311.8113 0001921 228.4823 131.6004 15.56765528 10759 BIRD-M 1 42822U 98067MW 17257.60803475 .00014196 00000-0 20101-3 0 9991 2 42822 51.6399 311.8169 0001941 233.0051 127.0764 15.56765534 10758 BIRD-B 1 42823U 98067MX 17257.41719669 .00013202 00000-0 18759-3 0 9995 2 42823 51.6401 312.7944 0005519 245.7008 114.3408 15.56734218 10727 BIRD-N 1 42824U 98067MY 17257.41975261 .00013053 00000-0 18603-3 0 9990 2 42824 51.6402 312.8117 0005407 247.6328 112.4091 15.56665491 10716 TechnoSat 1 42829U 17042E 17257.76253441 .00000415 00000-0 47765-4 0 9996 2 42829 97.6085 165.2164 0015362 39.9672 320.2674 14.90664508 9309 Mayak 1 42830U 17042F 17257.62605628 .00001362 00000-0 14376-3 0 9994 2 42830 097.6092 165.0948 0015794 037.7913 322.4412 14.90770233009273 OBJECT MZ 1 42910U 98067MZ 17257.77863179 .00013149 00000-0 19296-3 0 9994 2 42910 51.6389 311.4525 0006905 270.0056 90.0144 15.55850923 4387 OBJECT NA 1 42911U 98067NA 17257.77929281 .00014510 00000-0 21213-3 0 9997 2 42911 51.6405 311.4620 0006336 265.8945 94.1322 15.55859648 4364 OBJECT NB 1 42912U 98067NB 17257.78188879 .00012481 00000-0 18482-3 0 9998 2 42912 51.6373 311.4677 0006074 280.1043 79.9263 15.55664171 4381 OBJECT NC 1 42913U 98067NC 17257.52123562 .00018652 00000-0 26779-3 0 9993 2 42913 051.6389 312.7333 0005531 295.7854 064.2566 15.56144148004348 OBJECT ND 1 42914U 98067ND 17257.71884678 .00011837 00000-0 17605-3 0 9993 2 42914 51.6399 311.8063 0005804 272.7964 87.2363 15.55602942 4362 /EX
